This demonstration page uses our WeatherBlox Daily Observations layout. Learn more.

Hourly Observations for May 23, 2020

Temp ( °F °C ) Dew Point ( °F °C ) Humidity (%) Winds ( mph kmh ) Pressure ( in mb ) Visibility ( mi km ) Precip ( " mm )
12:15 am 00:15 Cloudy 59 15 59 15 100 100 SSW 3 6 30.02 1017 7 11.26538 0.02 0.508
12:35 am 00:35 Cloudy with Nearby Thunderstorms 59 15 59 15 100 100 Calm 30.02 1017 4 6.43736 0.1 2.54
12:55 am 00:55 Cloudy with Nearby Thunderstorms 59 15 59 15 100 100 Calm 30.02 1017 7 11.26538 0.11 2.794
1:15 am 01:15 Cloudy with Nearby Thunderstorms 59 15 59 15 100 100 Calm 30.02 1017 7 11.26538 0 0
1:35 am 01:35 Cloudy 59 15 59 15 100 100 Calm 30.01 1016 5 8.0467 0 0
1:55 am 01:55 Cloudy 59 15 59 15 100 100 WSW 3 6 30.02 1017 4 6.43736 0.03 0.762
2:15 am 02:15 Cloudy 59 15 59 15 100 100 Calm 30.01 1016 4 6.43736 0.05 1.27
2:35 am 02:35 Cloudy 59 15 59 15 100 100 Calm 30 1016 7 11.26538 0.08 2.032
2:55 am 02:55 Cloudy 59 15 59 15 100 100 Calm 30 1016 4 6.43736 0.09 2.286
3:15 am 03:15 Cloudy 57 14 57 14 100 100 Calm 30 1016 5 8.0467 0.01 0.254
3:35 am 03:35 Cloudy 57 14 57 14 100 100 Calm 29.98 1015 7 11.26538 0.01 0.254
3:55 am 03:55 Cloudy 57 14 57 14 100 100 Calm 29.98 1015 7 11.26538 0.01 0.254
4:15 am 04:15 Cloudy 57 14 57 14 100 100 W 3 6 30 1016 4 6.43736 0 0
4:35 am 04:35 Cloudy 55 13 55 13 100 100 W 3 6 30 1016 3 4.82802 0 0
4:55 am 04:55 Cloudy 55 13 55 13 100 100 Calm 30 1016 7 11.26538 0 0
5:15 am 05:15 Mostly Cloudy 55 13 55 13 100 100 Calm 30 1016 5 8.0467 0 0
5:35 am 05:35 Partly Cloudy 55 13 55 13 100 100 Calm 30 1016 3 4.82802 0 0
5:55 am 05:55 Cloudy 54 12 54 12 100 100 Calm 30 1016 0.25 0.402335 0 0
6:15 am 06:15 Cloudy 55 13 55 13 100 100 Calm 30 1016 0.25 0.402335 0 0
6:35 am 06:35 Mostly Cloudy 55 13 55 13 100 100 W 3 6 30.01 1016 2.5 4.02335 0 0
6:55 am 06:55 Sunny 55 13 55 13 100 100 NNE 3 6 30.01 1016 10 16.0934 0 0
7:15 am 07:15 Mostly Cloudy 55 13 55 13 100 100 Calm 30.02 1017 2.5 4.02335 0 0
7:35 am 07:35 Cloudy 55 13 55 13 100 100 NNE 5 7 30.03 1017 2.5 4.02335 0 0
7:55 am 07:55 Cloudy 55 13 55 13 100 100 NE 3 6 30.03 1017 2.5 4.02335 0 0
8:15 am 08:15 Cloudy 57 14 57 14 100 100 Calm 30.03 1017 3 4.82802 0 0
8:35 am 08:35 Cloudy 57 14 57 14 100 100 Calm 30.04 1017 7 11.26538 0 0
8:55 am 08:55 Mostly Cloudy 59 15 59 15 100 100 Calm 30.04 1017 10 16.0934 0.01 0.254
9:15 am 09:15 Mostly Cloudy 61 16 61 16 100 100 WNW 8 13 30.04 1017 10 16.0934 0 0
9:35 am 09:35 Mostly Cloudy 63 17 61 16 94 94 NNW 6 9 30.04 1017 10 16.0934 0 0
9:55 am 09:55 Mostly Cloudy 66 19 61 16 83 83 WNW 9 15 30.02 1017 10 16.0934 0 0
10:15 am 10:15 Partly Cloudy 68 20 61 16 78 78 NNW 8 13 30.03 1017 10 16.0934 0 0
10:35 am 10:35 Partly Cloudy 68 20 61 16 78 78 NNW 10 17 30.04 1017 10 16.0934 0 0
10:55 am 10:55 Partly Cloudy 68 20 61 16 78 78 N 7 11 30.04 1017 10 16.0934 0 0
11:15 am 11:15 Partly Cloudy 70 21 61 16 73 73 NNW 9 15 30.04 1017 10 16.0934 0 0
11:35 am 11:35 Partly Cloudy 70 21 61 16 73 73 N 10 17 30.04 1017 10 16.0934 0 0
11:55 am 11:55 Partly Cloudy 72 22 61 16 69 69 N 9 15 30.04 1017 10 16.0934 0 0
12:15 pm 12:15 Mostly Cloudy 70 21 61 16 73 73 NNE 6 9 30.04 1017 10 16.0934 0 0
12:35 pm 12:35 Partly Cloudy 73 23 61 16 65 65 N 10 17 30.03 1017 10 16.0934 0 0
12:55 pm 12:55 Partly Cloudy 73 23 61 16 65 65 NNE 7 11 30.03 1017 10 16.0934 0 0
1:15 pm 13:15 Partly Cloudy 73 23 61 16 65 65 NW 8 13 30.02 1016 10 16.0934 0 0
1:35 pm 13:35 Partly Cloudy 75 24 63 17 65 65 NW 8 13 30.02 1016 10 16.0934 0 0
1:55 pm 13:55 Mostly Cloudy 73 23 61 16 65 65 WNW 3 6 30.01 1016 10 16.0934 0 0
2:15 pm 14:15 Cloudy 73 23 61 16 65 65 NNW 3 6 30.01 1016 10 16.0934 0 0
2:35 pm 14:35 Mostly Cloudy 75 24 61 16 61 61 W 3 6 30.01 1016 10 16.0934 0 0
2:55 pm 14:55 Mostly Cloudy 77 25 63 17 61 61 Calm 30 1016 10 16.0934 0 0
3:15 pm 15:15 Partly Cloudy 77 25 63 17 61 61 W 6 9 30 1016 10 16.0934 0 0
3:35 pm 15:35 Mostly Cloudy 79 26 61 16 54 54 N 3 6 29.99 1016 10 16.0934 0 0
3:55 pm 15:55 Partly Cloudy 79 26 61 16 54 54 NNE 3 6 29.99 1016 10 16.0934 0 0
4:15 pm 16:15 Partly Cloudy 79 26 59 15 51 51 N 9 15 29.98 1015 10 16.0934 0 0
4:35 pm 16:35 Sunny 79 26 61 16 54 54 NNW 8 13 29.98 1015 10 16.0934 0 0
4:55 pm 16:55 Sunny 79 26 61 16 54 54 N 8 13 29.98 1015 10 16.0934 0 0
5:15 pm 17:15 Partly Cloudy 79 26 61 16 54 54 Calm 29.99 1016 10 16.0934 0 0
5:35 pm 17:35 Partly Cloudy 81 27 61 16 51 51 NW 9 15 29.99 1016 10 16.0934 0 0
5:55 pm 17:55 Sunny 79 26 61 16 54 54 NW 7 11 29.99 1016 10 16.0934 0 0
6:15 pm 18:15 Sunny 79 26 61 16 54 54 NW 3 6 29.99 1016 10 16.0934 0 0
6:35 pm 18:35 Sunny 79 26 61 16 54 54 N 3 6 29.98 1015 10 16.0934 0 0
6:55 pm 18:55 Sunny 79 26 61 16 54 54 NNE 5 7 29.99 1016 10 16.0934 0 0
7:15 pm 19:15 Sunny 79 26 61 16 54 54 N 3 6 29.99 1016 10 16.0934 0 0
7:35 pm 19:35 Sunny 79 26 61 16 54 54 NNE 3 6 29.99 1016 10 16.0934 0 0
7:55 pm 19:55 Sunny 77 25 61 16 57 57 Calm 30 1016 10 16.0934 0 0
8:15 pm 20:15 Sunny 77 25 61 16 57 57 Calm 30 1016 10 16.0934 0 0
8:35 pm 20:35 Clear 75 24 63 17 65 65 Calm 30.01 1016 10 16.0934 0 0
8:55 pm 20:55 Clear 70 21 63 17 78 78 Calm 30.01 1016 10 16.0934 0 0
9:15 pm 21:15 Clear 68 20 63 17 83 83 W 3 6 30.02 1017 10 16.0934 0 0
9:35 pm 21:35 Clear 68 20 64 18 88 88 Calm 30.03 1017 10 16.0934 0 0
9:55 pm 21:55 Partly Cloudy 66 19 63 17 88 88 Calm 30.04 1017 10 16.0934 0 0
10:15 pm 22:15 Mostly Cloudy 66 19 64 18 94 94 Calm 30.04 1017 10 16.0934 0 0
10:35 pm 22:35 Cloudy 64 18 63 17 94 94 Calm 30.05 1018 10 16.0934 0 0
10:55 pm 22:55 Cloudy 64 18 63 17 94 94 Calm 30.05 1018 10 16.0934 0 0
11:15 pm 23:15 Mostly Cloudy 64 18 63 17 94 94 Calm 30.06 1018 10 16.0934 0 0
11:35 pm 23:35 Mostly Cloudy 64 18 61 16 88 88 N 3 6 30.07 1018 10 16.0934 0 0
11:55 pm 23:55 Mostly Cloudy 68 20 63 17 83 83 NE 6 9 30.07 1018 10 16.0934 0 0

Powered by AerisWeather